Regional Weather Roundup
Issued by NWS

Home | Current Version | Previous Version | Text Only | Print | Product List | Glossary On
Versions: 1 2 3 4 5 6 7 8 9 10 11 12 13 14 15 16 17 18 19 20 21 22 23 24 25 26 27 28 29 30 31 32 33 34 35 36 37 38 39 40 41 42 43 44 45 46 47 48 49 50
000
ASUS44 KFWD 280215
RWRTX
NORTH TEXAS HOURLY WEATHER ROUNDUP
NATIONAL WEATHER SERVICE FORT WORTH TX
900 PM CDT THU JUL 27 2017

NOTE: "FAIR" INDICATES FEW OR NO CLOUDS BELOW 12,000 FEET WITH NO
SIGNIFICANT WEATHER AND/OR OBSTRUCTIONS TO VISIBILITY.

TXZ118-119-280300-
DALLAS/FORT WORTH METROPLEX

CITY           SKY/WX    TMP DP  RH WIND       PRES   REMARKS
DFW AIRPORT    MOCLDY    92  65  40 S8        29.87R HX  94
DALLAS LOVE    MOCLDY    95  64  35 S9        29.88R HX  97
FTW MEACHAM    PTCLDY    92  66  42 S9        29.88R HX  94
DAL-EXECUTIVE  CLOUDY    90  67  46 SE5       29.88S HX  93
FTW-ALLIANCE   MOCLDY    89  66  46 S7        29.88R HX  91
FTW-NAS-JRB    MOCLDY    94  64  37 S8        29.88S HX  95
FTW-SPINKS     PTCLDY    86  67  53 SE3       29.90S
ARLINGTON      PTCLDY    89  67  47 SE5       29.88S HX  92
GRAND PRAIRIE  CLEAR     95  63  34 SE8       29.89S HX  96
ADDISON        CLEAR     91  63  38 S7        29.90R HX  92
MESQUITE       CLOUDY    85  69  58 SE5       29.89S
LANCASTER      PTCLDY    87  68  53 SE6       29.89S HX  91
$$

TXZ091>094-102>105-117-120-121-131>134-280300-
NORTH CENTRAL TEXAS

CITY           SKY/WX    TMP DP  RH WIND       PRES   REMARKS
SHRMAN/DENISON PTCLDY    87  70  57 S10       29.89S HX  92
GAINESVILLE    PTCLDY    84  71  63 CALM      29.91R
BOWIE          PTCLDY    87  69  55 SE5       29.90R HX  90
BRIDGEPORT     PTCLDY    86  69  56 SE5       29.90S HX  90
DECATUR        PTCLDY    90  65  43 S7        29.90S HX  92
DENTON         PTCLDY    85  73  67 S7        29.88R HX  91
MCKINNEY       CLEAR     87  71  58 S7        29.88S HX  93
BONHAM         MOCLDY    86  72  62 S8        29.89S HX  92
GREENVILLE     PTCLDY    86  72  62 S3        29.90S HX  92
ROCKWALL       CLEAR     88  71  57 SE8       29.90R HX  93
TERRELL        PTCLDY    88  70  55 SE3       29.90R HX  93
WAXAHACHIE     PTCLDY    87  68  53 SE3       29.90S HX  90
CLEBURNE       CLOUDY    90  64  43 S9        29.91S HX  91
GRANBURY       CLOUDY    92  64  40 E5        29.90R HX  93
$$

TXZ083>090-098>101-113>116-127>130-139>142-154-155-280300-
WESTERN NORTH TEXAS

CITY           SKY/WX    TMP DP  RH WIND       PRES   REMARKS
WICHITA FALLS  PTCLDY    89  67  47 SE8       29.87R HX  92
WF-KICKAPOO    CLEAR     92  67  43 SE12      29.90R HX  96
VERNON         PTCLDY    93  56  28 SE6       29.89R HX  91
ABILENE        CLOUDY    90  57  32 SE8       29.93R
ABILENE-DYESS  PTCLDY    92  60  33 SE9       29.91R HX  92
GRAHAM         PTCLDY    91  59  34 SE3       29.88R HX  90
BRECKENRIDGE   CLOUDY    92  58  32 SE7       29.90S HX  91
CISCO          CLOUDY    88  61  40 SE8       29.93S
EASTLAND       MOCLDY    88  64  43 SE5       29.92R
RANGER         MOCLDY    86  64  47 S5        29.92S
MINERAL WELLS  CLOUDY    88  62  41 S7        29.88R
STEPHENVILLE   CLOUDY    87  61  41 CALM      29.94S
COMANCHE       PTCLDY    88  59  37 S7        29.93R
BROWNWOOD      CLEAR     90  59  35 SE7       29.92R
COLEMAN        CLEAR     90  56  32 S6        29.93S
$$

TXZ143>147-156>162-174-175-280300-
CENTRAL TEXAS

CITY           SKY/WX    TMP DP  RH WIND       PRES   REMARKS
WACO           CLEAR     91  68  46 SE9       29.89S HX  95
WACO-TSTC      CLEAR     90  64  43 SE6       29.89S HX  91
WACO-MCGREGOR  CLEAR     91  66  43 S7        29.90S HX  93
HILLSBORO      MOCLDY    91  64  40 SE7       29.90S HX  92
CORSICANA      CLOUDY    88  70  55 S9        29.91S HX  93
MEXIA          PTCLDY    86  70  58 SE3       29.90S HX  90
HEARNE         CLEAR     89  70  54 SE6       29.92S HX  94
CAMERON        CLEAR     91  71  51 S9        29.91S HX  97
TEMPLE         CLEAR     92  66  42 S10       29.91S HX  94
KILLEEN        CLEAR    N/A N/A N/A S7        29.91S
KILLEEN-SKYLRK CLEAR     92  67  43 S8        29.91F HX  95
FORT HOOD      CLEAR    N/A N/A N/A S8        29.88F
HAMILTON       CLEAR     90  61  37 S7        29.94R
LAMPASAS       CLEAR     92  65  41 S8        29.93S HX  94
$$

TXZ095>097-106>112-122>126-135>138-148>153-164>167-280300-
EAST TEXAS

CITY           SKY/WX    TMP DP  RH WIND       PRES   REMARKS
PARIS          PTCLDY    83  75  77 S6        29.90R HX  90
SULPHUR SPRNGS CLOUDY    88  70  55 S6        29.92R HX  93
MOUNT PLEASANT CLOUDY    84  71  63 S6        29.91S
GILMER         PTCLDY    86  74  66 CALM      29.91S HX  94
MINEOLA        MOCLDY    88  72  58 SE5       29.90S HX  94
TYLER          CLOUDY    87  73  62 S7        29.91F HX  94
LONGVIEW       PTCLDY    84  76  76 S6        29.90F HX  93
MARSHALL         N/A     85  75  70 CALM      29.94R HX  93
ATHENS         PTCLDY    86  70  58 S3        29.90S HX  90
PALESTINE      CLEAR     84  74  70 CALM      29.92F HX  91
JACKSONVILLE   PTCLDY    84  74  73 S5        29.95F HX  91
HENDERSON      PTCLDY    83  74  73 CALM      29.93S HX  90
CENTER         PTCLDY    84  82  93 CALM      29.94S HX 100
NACOGDOCHES    CLEAR     81  75  83 SE3       29.90F
LUFKIN         CLEAR     84  75  74 SE5       29.93S HX  92
$$

SUPPLEMENTAL OBSERVATIONS (NWS FORT WORTH AREA)

CITY           SKY/WX    TMP DP  RH WIND       PRES   REMARKS
DENISON DAM      N/A     90  68  48 S3          N/A  HX  93
CADDO GRASSLND   N/A     84  72  65 S6          N/A
PAT MAYSE LAKE   N/A     88  79  74 SE8         N/A  HX 102
GREENVILLE       N/A     88  72  58 S5          N/A  HX  94
CEDAR HILL       N/A     88  64  45 SE5         N/A
LBJ GRASSLAND    N/A     88  66  48 SE5         N/A  HX  90
POSSUM KINGDOM   N/A     90  59  35 SE2         N/A
GRANBURY         N/A     91  63  38 SE5         N/A  HX  92
COMANCHE         N/A     88  57  35 S7          N/A
MCGREGOR         N/A     90  63  40 S8          N/A  HX  90
TEMPLE           N/A     90  63  40 SE3         N/A  HX  90
LAKE LIMESTONE   N/A     88  68  51 S5          N/A  HX  91
ATHENS           N/A     88  70  55 S6          N/A  HX  92
$$

SUPPLEMENTAL OBSERVATIONS (NWS NORMAN AREA)

CITY           SKY/WX    TMP DP  RH WIND       PRES   REMARKS
GOODLETT         N/A     93  54  26 S8        29.89S HX  91
ODELL            N/A     89  65  44 SE8       29.90S HX  91
CROWELL          N/A     92  61  35 S7        29.90S HX  92
KNOX CITY        N/A     91  56  30 SE7       29.90S
SEYMOUR          N/A     92  57  30 SE7       29.90R HX  91
MILLERS CREEK    N/A     90  63  40 SE8         N/A  HX  90
$$

SUPPLEMENTAL OBSERVATIONS (NWS SAN ANGELO AREA)

CITY           SKY/WX    TMP DP  RH WIND       PRES   REMARKS
WEINERT          N/A     91  60  34 SE8       29.91R HX  91
HASKELL          N/A     92  55  28 SE7       29.92R HX  90
THROCKMORTON     N/A     89  63  42 SE6       29.92R
STAMFORD         N/A     91  59  33 SE6       29.91S HX  90
CLYDE            N/A     88  59  37 SE6       29.96R
HAMBY            N/A     91  55  29 SE3         N/A
IVIE RESERVOIR   N/A     91  57  31 SE9         N/A  HX  90
COLORADO BEND    N/A     90  59  35 CALM        N/A
$$

SUPPLEMENTAL OBSERVATIONS (NWS SHREVEPORT AREA)

CITY           SKY/WX    TMP DP  RH WIND       PRES   REMARKS
CLARKSVILLE      N/A     84  68  58 S5          N/A
TEXARKANA        N/A     81  73  78 CALM        N/A
LINDEN           N/A     88  72  58 S2          N/A  HX  94
CADDO LAKE       N/A     79  73  83 CALM        N/A
GILMER           N/A     86  73  66 S1          N/A  HX  93
HENDERSON        N/A     84  73  70 CALM        N/A  HX  91
LUFKIN           N/A     82  75  78 MISG        N/A
N SABINE NF      N/A     81  77  89 MISG        N/A
S SABINE NF      N/A     81  77  89 CALM        N/A
$$

SUPPLEMENTAL OBSERVATIONS ARE A COLLECTION OF AUTOMATED INSTRUMENTS
THAT ARE MAINTAINED BY A VARIETY OF FEDERAL AND STATE AGENCIES.
CERTAIN ELEMENTS...SUCH AS HUMIDITY VALUES AND SUSTAINED WIND
SPEEDS...MAY BE APPROXIMATED.





USA.gov is the U.S. government's official web portal to all federal, state and local government web resources and services.